990416 897  0.1+  0.6+    991004 360  1.0+  0.0     050515 213  0.4+  0.6+  

990426 372  0.2-  0.5+    991007 704 (2.3+  0.6-)   050515 213  0.8-  0.1+  

990426 372  0.0   1.2+    991007 704  1.5+  0.1-    050516 I77  0.1+  0.3-  

990427 372  0.1+  0.8+    991007 704  1.6+  0.7+    050517 834  0.5+  0.3-  

990427 372  0.0   0.1+    991007 704  0.1+  0.5+    050517 834  0.2+  0.2-  

990429 372  0.2+  0.1-    991007 704  1.4+  0.1-    050517 834  0.7+  0.4-  

990501 897 (2.1+  0.4+)   991009 750  1.2+  0.5-    050517 I77  0.7-  0.1+  

990501 897 (2.8+  0.2-)   991009 750  0.5+  1.0-    050517 I77  0.2+  0.4-  

990509 844  0.1-  0.4+    991009 750  0.6+  0.7-    050517 I77  0.1-  0.2-  

990509 844  0.8+  0.9+    991009 900  0.7+  0.3+    050520 834  0.4+  0.4-  

990509 844  0.1-  0.2+    991009 900  0.2+  0.7+    050520 I77  0.3+  0.6-  

990513 360  0.2+  0.1+    991010 750  1.4-  0.5+    050520 834  0.3+  0.2-  

990513 360  0.4+  0.0     991010 750  1.7+  0.2+    050520 I77  0.1+  0.3-  

990520 897  1.0-  0.3-    991010 750 (2.6+  0.1+)   050520 I77 (0.2+  2.8+) 

990520 897  1.4-  0.4-    991010 897  0.5+  0.9-    050521 834  0.4+  0.4-  

990614 349 (3.2-  1.2-)   991010 897  0.7+  0.4+    050521 834  0.2+  0.4-  

990614 349 (3.1-  0.3-)   991019 704 (4.2+  1.3+)   050521 834  0.5+  0.1-  

990614 349  0.4-  1.0+    991019 704 (2.4+  0.3-)   050526 423  0.3+  0.7-  

990621 349  0.5-  1.3-    991019 704  1.3+  0.8-    050526 423  0.3+  0.4-  

990621 349  0.4+  0.0     991019 704  1.0+  0.1-    050526 423  0.1+  0.4-  

990630 355  1.4-  0.1+    991019 046  0.7+  0.2+    050526 423  0.2+  0.2-  

990630 355  1.2-  0.5-    991019 046  0.3+  0.7-    050527 213  0.3+  0.1-  

990630 355  1.8-  0.7-    991019 046  0.7+  0.4+    050527 213  0.6+  0.3+  

990707 352  1.3-  0.2-    991019 046  0.8+  0.2-    050527 213  0.1+  0.2+  

990707 352  1.4-  0.1-    991020 900  1.0+  0.5+    050528 844  0.3+  0.0   

990708 349  1.3-  0.2-    991020 900  1.8+  0.7+    050528 844  0.4+  0.0   

990708 349  0.0   0.3+    991029 402  1.8+  0.5+    050528 844  0.3-  0.3-  

990710 900  0.2-  0.2-    991029 402  1.1+  0.6+                            



NAKANO

         **** Don't distribute anyone except personal use only ****

                (C) Copyright 2005 OAA/ComputingSection

write mail from CFAD0::NAKANO on 2005-06-05 05:59:11(JST).

 



  37P/Forbes 

Epoch 2005 Aug. 18.0 TT = JDT 2453600.5  

T 2005 Aug. 1.74844 TT                                  Nakano

q   1.5723997            (2000.0)            P               Q

n   0.15526470     Peri.  329.25869     +0.25237933     +0.96136505

a   3.4283690      Node   315.09920     -0.85311115     +0.16746477

e   0.5413564      Incl.    8.95839     -0.45662462     +0.21847837

P   6.35

From 255 observations 1980-1999, mean residual 0".76.

   Nongravitational parameters A1 = +0.39 +/- 0.01, A2 = -0.0402 +/- 0.0004.



NAKANO

         **** Don't distribute anyone except personal use only ****

                (C) Copyright 2002 OAA/ComputingSection

write mail from CFAD0::NAKANO on 2002-05-10 00:07:37(JST).









–ß‚è‚Ü‚·B